Date String (YYYY-MM-DD hh:mm:ss) UTC,Instrument flags,Ambient pressure (hPa),Sample flow (lpm),Bypass flow (lpm),Sample temperature (°C),Ambient temperature (°C),ASC tube jacket temperature (°C),LED temperature (°C),Box temperature (°C),Sample RH (%),Span deviation,Mass concentration (μg/m³),Mass concentration (μg/m³),Mass concentration (μg/m³)
DateTimeUTC,F1_M11,P_M11,Q1_M11,Q2_M11,T1_M11,T2_M11,T3_M11,T4_M11,T5_M11,U1_M11,ZSPAN_M11,X2_M11,X0_M11,X1_M11
2023-02-08 11:00:00,,0826.0,4.95,0.00,22.1,20.5,00.0,31.0,23.7,07.8,0000.0,0003.13,0008.24,0002.17
2023-02-08 11:01:00,,0826.0,5.04,0.00,22.1,20.5,00.0,31.0,23.7,07.8,0000.0,0002.99,0007.22,0002.08
2023-02-08 11:02:00,,0826.0,4.96,0.00,22.0,20.5,00.0,31.0,23.7,07.8,0000.0,0002.83,0007.42,0001.98
2023-02-08 11:03:00,,0826.0,5.03,0.00,22.0,20.5,00.0,31.0,23.6,07.8,0000.0,0002.73,0007.34,0001.91
2023-02-08 11:04:00,,0826.0,4.99,0.00,22.0,20.5,00.0,31.0,23.7,07.8,0000.0,0002.71,0007.39,0001.86
2023-02-08 11:05:00,,0826.0,5.03,0.00,22.0,20.5,00.0,31.0,23.7,07.8,0000.0,0002.77,0007.86,0001.86
2023-02-08 11:06:00,,0826.0,5.00,0.00,22.0,20.4,00.0,30.9,23.6,07.8,0000.0,0002.77,0008.20,0001.86
2023-02-08 11:07:00,,0826.0,5.06,0.00,22.0,21.0,00.0,30.9,23.8,07.7,0000.0,0002.71,0008.09,0001.85
2023-02-08 11:08:00,,0826.0,4.97,0.00,22.1,22.1,00.0,30.9,24.0,07.7,0000.0,0002.67,0008.25,0001.83
2023-02-08 11:09:00,,0826.0,5.02,0.00,22.2,22.9,00.0,30.9,24.3,07.6,0000.0,0002.67,0008.22,0001.83
2023-02-08 11:10:00,,0826.0,4.95,0.00,22.3,22.6,00.0,31.0,24.3,07.6,0000.0,0002.71,0007.78,0001.83
2023-02-08 11:11:00,,0826.0,4.99,0.00,22.3,22.1,00.0,31.0,24.2,07.5,0000.0,0002.67,0007.44,0001.84
2023-02-08 11:12:00,,0825.9,4.99,0.00,22.3,21.7,00.0,31.0,24.1,07.4,0000.0,0002.62,0007.26,0001.82
2023-02-08 11:13:00,,0825.9,5.06,0.00,22.3,21.4,00.0,31.1,24.1,07.4,0000.0,0002.55,0006.31,0001.81
2023-02-08 11:14:00,,0826.0,4.99,0.00,22.3,21.2,00.0,31.1,24.0,07.5,0000.0,0002.57,0006.38,0001.80
2023-02-08 11:15:00,,0825.9,5.06,0.00,22.3,21.0,00.0,31.1,24.0,07.5,0000.0,0002.58,0006.41,0001.79
2023-02-08 11:16:00,,0825.9,5.01,0.00,22.3,20.9,00.0,31.1,24.0,07.5,0000.0,0002.50,0005.97,0001.76
2023-02-08 11:17:00,,0825.9,5.01,0.00,22.3,20.8,00.0,31.1,23.9,07.5,0000.0,0002.44,0005.56,0001.74
2023-02-08 11:18:00,,0825.9,5.01,0.00,22.2,20.7,00.0,31.1,23.9,07.4,0000.0,0002.44,0005.57,0001.70
2023-02-08 11:19:00,,0825.8,5.00,0.00,22.2,20.7,00.0,31.1,23.9,07.4,0000.0,0002.48,0005.22,0001.69
2023-02-08 11:20:00,,0825.8,4.98,0.00,22.2,20.6,00.0,31.1,23.8,07.4,0000.0,0002.48,0005.38,0001.67
2023-02-08 11:21:00,,0825.7,4.98,0.00,22.2,20.6,00.0,31.1,23.8,07.4,0000.0,0002.41,0006.15,0001.64
2023-02-08 11:22:00,,0825.8,5.02,0.00,22.2,20.5,00.0,31.1,23.8,07.5,0000.0,0002.34,0005.97,0001.60
2023-02-08 11:23:00,,0825.8,5.00,0.00,22.1,20.5,00.0,31.1,23.8,07.5,0000.0,0002.32,0005.94,0001.59
2023-02-08 11:24:00,,0825.8,5.00,0.00,22.1,20.6,00.0,31.0,23.7,07.5,0000.0,0002.28,0005.85,0001.57
2023-02-08 11:25:00,,0825.9,4.95,0.00,22.2,21.4,00.0,31.0,24.0,07.5,0000.0,0002.24,0006.10,0001.56
2023-02-08 11:26:00,,0825.9,4.99,0.00,22.3,22.4,00.0,31.0,24.3,07.4,0000.0,0002.14,0006.14,0001.53
2023-02-08 11:27:00,,0826.0,5.01,0.00,22.4,22.9,00.0,31.0,24.4,07.4,0000.0,0002.19,0006.01,0001.52
2023-02-08 11:28:00,,0825.9,4.99,0.00,22.4,22.4,00.0,31.1,24.3,07.4,0000.0,0002.13,0005.53,0001.50
2023-02-08 11:29:00,,0825.9,4.99,0.00,22.4,21.9,00.0,31.1,24.2,07.4,0000.0,0002.11,0005.85,0001.49
2023-02-08 11:30:00,,0825.9,5.07,0.00,22.4,21.6,00.0,31.1,24.2,07.4,0000.0,0002.05,0005.99,0001.46
2023-02-08 11:31:00,,0825.9,5.04,0.00,22.4,21.3,00.0,31.2,24.1,07.4,0000.0,0002.00,0005.63,0001.43
2023-02-08 11:32:00,,0825.8,4.98,0.00,22.4,21.1,00.0,31.2,24.1,07.4,0000.0,0001.95,0004.70,0001.41
2023-02-08 11:33:00,,0825.8,5.02,0.00,22.4,20.9,00.0,31.2,24.0,07.4,0000.0,0001.96,0004.73,0001.40
2023-02-08 11:34:00,,0825.8,5.01,0.00,22.3,20.8,00.0,31.2,24.0,07.4,0000.0,0001.95,0004.70,0001.39
2023-02-08 11:35:00,,0826.1,5.02,0.00,22.3,20.8,00.0,31.2,23.9,07.4,0000.0,0001.99,0004.86,0001.38
2023-02-08 11:36:00,,0826.3,5.00,0.00,22.3,20.7,00.0,31.2,23.9,07.4,0000.0,0002.00,0004.76,0001.38
2023-02-08 11:37:00,,0825.9,4.99,0.00,22.2,20.6,00.0,31.2,23.9,07.4,0000.0,0002.00,0004.34,0001.37
2023-02-08 11:38:00,,0826.0,5.03,0.00,22.2,20.6,00.0,31.1,23.8,07.4,0000.0,0001.99,0004.18,0001.36
2023-02-08 11:39:00,,0826.1,5.00,0.00,22.2,20.5,00.0,31.1,23.8,07.4,0000.0,0002.01,0004.40,0001.36
2023-02-08 11:40:00,,0826.1,5.00,0.00,22.2,20.5,00.0,31.1,23.8,07.5,0000.0,0001.99,0004.13,0001.35
2023-02-08 11:41:00,,0825.9,5.05,0.00,22.2,20.9,00.0,31.1,23.9,07.5,0000.0,0001.99,0003.87,0001.34
2023-02-08 11:42:00,,0825.8,4.97,0.00,22.3,21.9,00.0,31.0,24.1,07.5,0000.0,0001.96,0003.73,0001.34
2023-02-08 11:43:00,,0825.7,5.04,0.00,22.4,22.7,00.0,31.1,24.3,07.5,0000.0,0001.97,0003.73,0001.34
2023-02-08 11:44:00,,0825.9,5.03,0.00,22.4,22.6,00.0,31.1,24.4,07.4,0000.0,0001.99,0003.88,0001.34
2023-02-08 11:45:00,,0825.8,5.03,0.00,22.4,22.1,00.0,31.2,24.3,07.4,0000.0,0001.96,0003.80,0001.33
2023-02-08 11:46:00,,0825.8,4.96,0.00,22.4,21.7,00.0,31.2,24.2,07.4,0000.0,0001.93,0003.72,0001.31
2023-02-08 11:47:00,,0825.8,5.03,0.00,22.4,21.4,00.0,31.2,24.1,07.4,0000.0,0001.90,0003.55,0001.31
2023-02-08 11:48:00,,0825.7,5.00,0.00,22.4,21.2,00.0,31.2,24.1,07.3,0000.0,0001.91,0003.63,0001.30
2023-02-08 11:49:00,,0825.7,5.01,0.00,22.4,21.0,00.0,31.2,24.1,07.3,0000.0,0001.88,0004.49,0001.30
2023-02-08 11:50:00,,0825.6,5.02,0.00,22.3,20.8,00.0,31.2,24.0,07.3,0000.0,0001.84,0004.41,0001.29
2023-02-08 11:51:00,,0825.6,4.99,0.00,22.3,20.8,00.0,31.2,24.0,07.3,0000.0,0001.85,0004.37,0001.30
2023-02-08 11:52:00,,0825.6,4.99,0.00,22.3,20.7,00.0,31.2,23.9,07.4,0000.0,0001.85,0004.35,0001.30
2023-02-08 11:53:00,,0825.6,5.01,0.00,22.3,20.6,00.0,31.2,23.9,07.4,0000.0,0001.84,0004.33,0001.30
2023-02-08 11:54:00,,0825.6,5.01,0.00,22.2,20.5,00.0,31.2,23.9,07.4,0000.0,0001.86,0004.44,0001.31
2023-02-08 11:55:00,,0825.6,5.00,0.00,22.2,20.5,00.0,31.2,23.8,07.3,0000.0,0001.89,0004.39,0001.32
2023-02-08 11:56:00,,0825.6,5.01,0.00,22.2,20.5,00.0,31.1,23.8,07.4,0000.0,0001.96,0004.58,0001.34
2023-02-08 11:57:00,,0825.6,4.95,0.00,22.2,20.9,00.0,31.1,23.9,07.3,0000.0,0002.03,0004.74,0001.35
2023-02-08 11:58:00,,0825.6,5.00,0.00,22.3,22.0,00.0,31.1,24.2,07.3,0000.0,0002.05,0004.94,0001.35
2023-02-08 11:59:00,,0825.6,4.99,0.00,22.4,22.9,00.0,31.1,24.4,07.3,0000.0,0002.01,0004.87,0001.35
